Location: Karlsruhe
(49.0131°N, 8.3874°E)
Time: 08:34:10
(UTC+02:00)

ISS - Pass Details

Date: 15 May 2021
Orbit: 419 x 422 km, 51.6° (Epoch: 24 June)

Event Time Altitude Azimuth Distance (km) Brightness Sun altitude
Rises 03:33:25 0° 290° (WNW) 2,444 0.0 -16.2°
Reaches altitude 10° 03:35:33 10° 288° (WNW) 1,575 -1.0 -16.0°
Maximum altitude 03:39:05 72° 205° (SSW) 476 -3.8 -15.6°
Drops below altitude 10° 03:42:37 10° 120° (ESE) 1,576 -0.8 -15.3°
Sets 03:44:39 0° 119° (ESE) 2,404 0.2 -15.1°
